GW1551 Weather Reports


time (UTC)temp
C
wind
direction
speed
KPH
gust
KPH
rain 1hr
cm
rain 24hr
cm
rain mn
cm
humidity
%
barometer
mb
20260504235017 23 207 1.6 6.4 0.00 0.00 0.00 37 1010.6
20260504234036 23 204 6.4 16.1 0.00 0.00 0.00 36 1010.4
20260504234017 23 204 6.4 16.1 0.00 0.00 0.00 36 1010.6
20260504233056 23 196 6.4 14.5 0.00 0.00 0.00 36 1010.4
20260504233017 23 196 6.4 14.5 0.00 0.00 0.00 36 1010.6
20260504232036 23 205 3.2 8.0 0.00 0.00 0.00 35 1010.3
20260504232017 23 203 3.2 8.0 0.00 0.00 0.00 35 1010.5
20260504231017 23 237 3.2 8.0 0.00 0.00 0.00 35 1010.6
20260504230017 24 218 6.4 17.7 0.00 0.00 0.00 34 1010.6
20260504225056 24 208 8.0 20.9 0.00 0.00 0.00 33 1010.2
20260504225016 24 207 8.0 20.9 0.00 0.00 0.00 33 1010.5
20260504224016 25 237 4.8 14.5 0.00 0.00 0.00 33 1010.1
20260504223016 25 221 6.4 16.1 0.00 0.00 0.00 32 1010.3
20260504222116 25 223 6.4 22.5 0.00 0.00 0.00 31 1010.2
20260504222016 25 224 6.4 22.5 0.00 0.00 0.00 31 1010.4
20260504221036 25 195 8.0 20.9 0.00 0.00 0.00 31 1010.2
20260504221016 25 196 8.0 20.9 0.00 0.00 0.00 31 1010.5
20260504220037 26 218 4.8 17.7 0.00 0.00 0.00 31 1010.3
20260504220015 26 222 4.8 17.7 0.00 0.00 0.00 31 1010.5
20260504215017 26 209 8.0 20.9 0.00 0.00 0.00 30 1010.5
20260504214017 26 198 6.4 14.5 0.00 0.00 0.00 30 1010.7
20260504213116 26 223 4.8 12.9 0.00 0.00 0.00 29 1010.5
20260504213017 26 224 4.8 12.9 0.00 0.00 0.00 29 1010.8
20260504212036 26 204 8.0 22.5 0.00 0.00 0.00 29 1010.4
20260504212017 26 205 8.0 22.5 0.00 0.00 0.00 29 1010.7
20260504211136 27 205 8.0 22.5 0.00 0.00 0.00 28 1010.5
20260504211017 27 205 8.0 22.5 0.00 0.00 0.00 28 1010.7
20260504210036 27 194 6.4 22.5 0.00 0.00 0.00 28 1010.4
20260504210017 27 197 6.4 22.5 0.00 0.00 0.00 28 1010.6
20260504205017 27 198 3.2 11.3 0.00 0.00 0.00 27 1010.8
20260504204017 27 216 4.8 20.9 0.00 0.00 0.00 27 1010.7
20260504204015 27 216 4.8 20.9 0.00 0.00 0.00 27 1010.4
20260504203017 27 198 6.4 14.5 0.00 0.00 0.00 26 1010.8
20260504202016 27 208 6.4 17.7 0.00 0.00 0.00 26 1010.9
20260504201056 27 183 4.8 22.5 0.00 0.00 0.00 26 1010.7
20260504201016 27 182 4.8 22.5 0.00 0.00 0.00 26 1011.0
20260504200056 27 202 8.0 19.3 0.00 0.00 0.00 26 1010.9
20260504200017 27 202 8.0 17.7 0.00 0.00 0.00 26 1011.2
20260504195018 27 207 6.4 22.5 0.00 0.00 0.00 26 1011.0
20260504194017 27 208 4.8 17.7 0.00 0.00 0.00 25 1011.4
20260504193018 28 198 6.4 22.5 0.00 0.00 0.00 26 1011.2
20260504192016 28 202 6.4 14.5 0.00 0.00 0.00 25 1011.5
20260504191036 27 219 3.2 11.3 0.00 0.00 0.00 26 1011.9
20260504191018 27 216 3.2 11.3 0.00 0.00 0.00 26 1011.6
20260504190018 27 210 8.0 24.1 0.00 0.00 0.00 26 1011.8
20260504190016 27 214 8.0 24.1 0.00 0.00 0.00 26 1012.1
20260504185018 27 179 4.8 12.9 0.00 0.00 0.00 27 1011.9
20260504184017 27 213 6.4 14.5 0.00 0.00 0.00 26 1012.4
20260504183018 27 196 4.8 14.5 0.00 0.00 0.00 27 1012.2
20260504183016 27 195 4.8 12.9 0.00 0.00 0.00 27 1012.5
20260504182016 27 201 6.4 17.7 0.00 0.00 0.00 27 1012.6
20260504181518 27 105 8.0 14.5 0.00 0.00 0.00 28 1012.4
20260504181016 27 168 6.4 14.5 0.00 0.00 0.00 27 1012.7
20260504180015 26 228 3.2 11.3 0.00 0.00 0.00 28 1012.9
20260504175035 26 190 4.8 14.5 0.00 0.00 0.00 28 1013.0
20260504174017 26 189 4.8 16.1 0.00 0.00 0.00 28 1013.2
20260504173017 25 169 4.8 12.9 0.00 0.00 0.00 28 1013.3
20260504172016 25 234 4.8 12.9 0.00 0.00 0.00 29 1013.4
20260504171038 25 158 4.8 16.1 0.00 0.00 0.00 29 1013.5
20260504151016 17 165 3.2 6.4 0.00 0.00 0.00 49 1014.8
20260504141018 15 116 3.2 6.4 0.00 0.00 0.00 48 1015.2
20260504100139 10 85 1.6 3.2 0.00 0.00 0.00 59 1015.7
20260504081039 10 0.0 0.0 0.00 0.00 0.00 59 1016.1
20260504050018 8 0.0 0.0 0.00 0.00 0.00 64 1016.2
20260504045018 8 0.0 0.0 0.00 0.00 0.00 64 1016.2
20260504044017 8 0.0 0.0 0.00 0.00 0.00 64 1016.2
20260504043057 8 0.0 0.0 0.00 0.00 0.00 63 1016.1
20260504042017 8 0.0 0.0 0.00 0.00 0.00 63 1016.0
20260504041017 8 0.0 0.0 0.00 0.00 0.00 62 1015.9
20260504040016 8 0.0 0.0 0.00 0.00 0.00 60 1015.9
20260504035016 9 0.0 0.0 0.00 0.00 0.00 59 1016.1
20260504034016 9 0.0 0.0 0.00 0.00 0.00 58 1016.0
20260504033037 9 0.0 0.0 0.00 0.00 0.00 57 1015.9
20260504032037 10 0.0 0.0 0.00 0.00 0.00 56 1015.9
20260504031017 10 0.0 0.0 0.00 0.00 0.00 55 1015.8
20260504030016 10 0.0 0.0 0.00 0.00 0.00 52 1015.7
20260504025017 10 0.0 0.0 0.00 0.00 0.00 51 1015.6
20260504024016 10 0.0 0.0 0.00 0.00 0.00 49 1015.6
20260504023016 11 0.0 0.0 0.00 0.00 0.00 49 1015.6
20260504022017 11 0.0 0.0 0.00 0.00 0.00 48 1015.6
20260504021016 11 0.0 0.0 0.00 0.00 0.00 47 1015.5
20260504020018 11 0.0 0.0 0.00 0.00 0.00 44 1015.5
20260504015018 12 0.0 0.0 0.00 0.00 0.00 44 1015.4
20260504014018 12 0.0 0.0 0.00 0.00 0.00 43 1015.3
20260504013016 12 0.0 0.0 0.00 0.00 0.00 41 1015.3
20260504012018 13 0.0 0.0 0.00 0.00 0.00 41 1015.2
20260504011018 13 0.0 0.0 0.00 0.00 0.00 39 1015.1
20260504010016 14 0.0 0.0 0.00 0.00 0.00 37 1015.1
20260504005038 14 0.0 0.0 0.00 0.00 0.00 36 1015.1
20260504004018 15 0.0 0.0 0.00 0.00 0.00 34 1015.1
20260504003018 15 0 0.0 1.6 0.00 0.00 0.00 32 1015.0
20260504002017 15 195 1.6 4.8 0.00 0.00 0.00 30 1015.0
20260504001016 16 201 0.0 3.2 0.00 0.00 0.00 30 1014.9
20260504000015 16 232 0.0 1.6 0.00 0.00 0.00 29 1014.8